Location: Newark
(48.1500°N, 2.9667°W)
Time: 03:19:54
(UTC+00:00)

Transit 2A - Pass Details

Date: 29 January 2020
Orbit: 600 x 959 km, 66.7° (Epoch: 16 February)

Event Time Altitude Azimuth Distance (km) Brightness Sun altitude
Rises 20:42:13 0° 252° (WSW) 2,858 9.7 -35.9°
Reaches altitude 10° 20:44:50 10° 267° (W) 1,946 8.8 -36.4°
Enters shadow 20:46:02 16° 279° (W) 1,604 8.3 -36.5°
Maximum altitude 20:48:20 23° 321° (NW) 1,288 - -36.9°
Drops below altitude 10° 20:51:53 10° 15° (NNE) 1,977 - -37.5°
Sets 20:54:35 0° 30° (NNE) 2,917 - -37.9°
